Location: Guilderland
(42.7045°N, 73.9115°W)
Time: 18:41:48
(UTC+00:00)

SL-14 R/B - Pass Details

Date: 24 January 2020
Orbit: 518 x 555 km, 82.4° (Epoch: 26 February)

Event Time Altitude Azimuth Distance (km) Brightness Sun altitude
Rises 22:27:01 0° 200° (SSW) 2,707 7.5 -5.7°
Reaches altitude 10° 22:29:15 10° 207° (SSW) 1,814 6.7 -6.1°
Maximum altitude 22:33:06 47° 281° (W) 728 4.4 -6.8°
Drops below altitude 10° 22:36:57 10° 357° (N) 1,808 5.8 -7.4°
Sets 22:39:10 0° 3° (N) 2,697 6.6 -7.8°
